Weather History for 42348 - March, 2013

Change the Weather History Date:

Tuesday, March 26, 2013

  Actual Average Record
Temperature  
Mean Temperature 78 °F -  
Max Temperature 89 °F - - ()
Min Temperature 67 °F - - ()
Cooling Degree Days 13    
Growing Degree Days 28 (Base 50)    
Moisture  
Dew Point 42 °F    
Average Humidity 28    
Maximum Humidity 56    
Minimum Humidity 8    
Precipitation  
Precipitation 0.00 in - - ()
Sea Level Pressure  
Sea Level Pressure 29.83 in    
Wind  
Wind Speed 5 mph ()    
Max Wind Speed 8 mph    
Max Gust Speed -    
Visibility 2.5 miles    
Events      
T = Trace of Precipitation, MM = Missing Value Source: Averaged Metar Reports

Daily Weather History Graph

Daily Weather History Graph

Search for Another Location

Airport or City:

Trip Planner

Search our weather history database for the weather conditions in past years. The results will help you decide how hot, cold, wet, or windy it might be!

Date:

Astronomy

Mar. 26, 2013 Rise Set
Actual Time 6:24 AM IST 6:40 PM IST
Civil Twilight 6:01 AM IST 7:04 PM IST
Nautical Twilight 5:34 AM IST 7:31 PM IST
Astronomical Twilight 5:06 AM IST 7:58 PM IST
Moon 5:48 PM IST (3/26) 5:21 AM IST (3/26)
Length of Visible Light 13h 03m
Length of Day
12h 16m
Waxing Gibbous, 98% of the Moon is Illuminated
Mar 26
Waxing Gibbous
Mar 27
Full
Apr 3
Last Quarter
Apr 10
New
Apr 18
First Quarter

Hourly Weather History & Observations

Time (IST) Temp. Dew Point Humidity Pressure Visibility Wind Dir Wind Speed Gust Speed Precip Events Conditions
12:00 AM 75.2 °F 44.6 °F 34% 29.86 in 1.9 mi Variable 4.6 mph - N/A   Haze
1:00 AM 73.4 °F 44.6 °F 36% 29.86 in 1.9 mi Variable 5.8 mph - N/A   Haze
2:00 AM 71.6 °F 46.4 °F 41% 29.83 in 1.9 mi Variable 1.2 mph - N/A   Haze
2:30 AM 72 °F 49 °F 34% 29.78 in 1 mi WSW 5.8 mph - -  
3:00 AM 71.6 °F 50.0 °F 46% 29.83 in 1.9 mi Variable 5.8 mph - N/A   Haze
4:00 AM 69.8 °F 50.0 °F 49% 29.80 in 1.9 mi Variable 6.9 mph - N/A   Haze
5:00 AM 68.0 °F 51.8 °F 56% 29.83 in 1.9 mi Variable 3.5 mph - N/A   Haze
6:00 AM 68.0 °F 51.8 °F 56% 29.86 in 1.9 mi Variable 3.5 mph - N/A   Haze
7:00 AM 68.0 °F 51.8 °F 56% 29.86 in 1.9 mi Variable 3.5 mph - N/A   Haze
8:00 AM 71.6 °F 51.8 °F 50% 29.86 in 1.9 mi Variable 4.6 mph - N/A   Haze
8:30 AM 73 °F 52 °F 37% 29.81 in 2 mi NNW 5.8 mph - -   Haze
9:00 AM 73.4 °F 48.2 °F 41% 29.89 in 1.9 mi Variable 6.9 mph - N/A   Haze
11:00 AM 80.6 °F 41.0 °F 24% 29.92 in 3.1 mi Variable 6.9 mph - N/A   Haze
11:30 AM 81 °F 43 °F 16% 29.81 in 2 mi WNW 6.9 mph - -   Haze
12:00 PM 82.4 °F 39.2 °F 21% 29.89 in 3.7 mi Variable 5.8 mph - N/A   Scattered Clouds
1:00 PM 84.2 °F 39.2 °F 20% 29.86 in 3.7 mi Variable 6.9 mph - N/A   Scattered Clouds
1:30 PM 86.0 °F 35.6 °F 17% 29.86 in 3.7 mi West 8.1 mph - N/A   Scattered Clouds
2:00 PM 84.2 °F 37.4 °F 19% 29.83 in 3.7 mi Variable 4.6 mph - N/A   Scattered Clouds
2:30 PM 87 °F 34 °F 8% 29.75 in 2 mi NW 6.9 mph - -   Scattered Clouds
3:00 PM 87.8 °F 35.6 °F 16% 29.83 in 3.7 mi Variable 6.9 mph - N/A   Scattered Clouds
3:30 PM 86.0 °F 33.8 °F 15% 29.83 in 3.7 mi NW 8.1 mph - N/A   Scattered Clouds
4:00 PM 87.8 °F 33.8 °F 15% 29.80 in 3.7 mi Variable 6.9 mph - N/A   Scattered Clouds
5:00 PM 87.8 °F 33.8 °F 15% 29.80 in 3.7 mi WNW 6.9 mph - N/A   Scattered Clouds
5:30 PM 86 °F 36 °F 9% 29.73 in 2 mi NNW 6.9 mph - -   Partly Cloudy
6:00 PM 84.2 °F 33.8 °F 16% 29.80 in 3.7 mi Variable 6.9 mph - N/A   Scattered Clouds
8:00 PM 80.6 °F 37.4 °F 21% 29.86 in 2.5 mi Variable 6.9 mph - N/A   Haze
8:30 PM 79 °F 39 °F 15% 29.80 in 2 mi South 4.6 mph - -   Haze
9:00 PM 78.8 °F 39.2 °F 24% 29.86 in 2.5 mi Variable 5.8 mph - N/A   Haze
10:00 PM 77.0 °F 39.2 °F 26% 29.86 in 2.5 mi North 4.6 mph - N/A   Haze
11:00 PM 71.6 °F 32.0 °F 23% 29.86 in 2.5 mi Calm Calm - N/A   Haze
11:30 PM 72 °F 44 °F 25% 29.81 in 2 mi Calm Calm - -   Haze